Home > Products > Valid Products > RWR

000
ASUS41 KRLX 310210
RWRRLX
West Virginia Regional Weather Roundup
National Weather Service Charleston WV
1000 PM EDT MON MAY 30 2016

Note: "fair" indicates few or no clouds below 12,000 feet with no
significant weather and/or obstructions to visibility.

WVZ003-310300-
Northern Panhandle of West Virginia

CITY           SKY/WX    TMP DP  RH WIND       PRES   REMARKS
WHEELING         N/A     71  57  61 E3        30.01R
$$

WVZ009-310300-
Northwest West Virginia

CITY           SKY/WX    TMP DP  RH WIND       PRES   REMARKS
PARKERSBURG      N/A     68  62  81 CALM      30.02R
$$

WVZ006-310300-
Western West Virginia

CITY           SKY/WX    TMP DP  RH WIND       PRES   REMARKS
HUNTINGTON       N/A     72  61  68 E3        29.99R
$$

WVZ015-310300-
West Central West Virginia

CITY           SKY/WX    TMP DP  RH WIND       PRES   REMARKS
CHARLESTON       N/A     71  63  75 CALM      30.00R
$$

WVZ022-031-310300-
North Central West Virginia

CITY           SKY/WX    TMP DP  RH WIND       PRES   REMARKS
CLARKSBURG       N/A     68  66  93 CALM      30.00R
MORGANTOWN       N/A     71  57  61 CALM      30.02R
$$

WVZ025-035-042-045-310300-
Southern West Virginia

CITY           SKY/WX    TMP DP  RH WIND       PRES   REMARKS
BECKLEY          N/A     70  60  70 NE3       30.07R
LOGAN            N/A     73  63  68 CALM      30.02R
BLUEFIELD        N/A     69  56  62 NE5       30.09R
LEWISBURG        N/A     65  61  86 CALM      30.07R
$$

WVZ047-310300-
Northern Mountains of West Virginia

CITY           SKY/WX    TMP DP  RH WIND       PRES   REMARKS
ELKINS         MOCLDY    64  57  78 CALM      30.06R
$$

WVZ052-310300-
Eastern Panhandle of West Virginia

CITY           SKY/WX    TMP DP  RH WIND       PRES   REMARKS
MARTINSBURG      N/A     70  63  78 E3        29.97R
PETERSBURG       N/A     68  65  91 CALM      30.03R
$$






000
ASUS41 KRLX 310110
RWRRLX
West Virginia Regional Weather Roundup
National Weather Service Charleston WV
900 PM EDT MON MAY 30 2016

Note: "fair" indicates few or no clouds below 12,000 feet with no
significant weather and/or obstructions to visibility.

WVZ003-310200-
Northern Panhandle of West Virginia

CITY           SKY/WX    TMP DP  RH WIND       PRES   REMARKS
WHEELING         N/A     77  55  46 CALM      29.99R
$$

WVZ009-310200-
Northwest West Virginia

CITY           SKY/WX    TMP DP  RH WIND       PRES   REMARKS
PARKERSBURG      N/A     73  63  70 CALM      30.00R
$$

WVZ006-310200-
Western West Virginia

CITY           SKY/WX    TMP DP  RH WIND       PRES   REMARKS
HUNTINGTON       N/A     77  59  53 N3        29.98R
$$

WVZ015-310200-
West Central West Virginia

CITY           SKY/WX    TMP DP  RH WIND       PRES   REMARKS
CHARLESTON       N/A     75  62  64 CALM      29.98S
$$

WVZ022-031-310200-
North Central West Virginia

CITY           SKY/WX    TMP DP  RH WIND       PRES   REMARKS
CLARKSBURG       N/A     72  66  81 CALM      29.99R
MORGANTOWN       N/A     78  55  44 CALM      30.00R
$$

WVZ025-035-042-045-310200-
Southern West Virginia

CITY           SKY/WX    TMP DP  RH WIND       PRES   REMARKS
BECKLEY          N/A     71  59  65 N6        30.06R
LOGAN            N/A     75  63  64 CALM      30.01S
BLUEFIELD        N/A     71  55  56 CALM      30.07S
LEWISBURG      CLOUDY    68  61  77 N3        30.05R
$$

WVZ047-310200-
Northern Mountains of West Virginia

CITY           SKY/WX    TMP DP  RH WIND       PRES   REMARKS
ELKINS           N/A     66  58  75 CALM      30.04R
$$

WVZ052-310200-
Eastern Panhandle of West Virginia

CITY           SKY/WX    TMP DP  RH WIND       PRES   REMARKS
MARTINSBURG      N/A     71  63  75 S6        29.94F
PETERSBURG     LGT RAIN  72  65  79 CALM      30.02R
$$






000
ASUS41 KRLX 301810
RWRRLX
West Virginia Regional Weather Roundup
National Weather Service Charleston WV
200 PM EDT MON MAY 30 2016

Note: "fair" indicates few or no clouds below 12,000 feet with no
significant weather and/or obstructions to visibility.

WVZ003-301900-
Northern Panhandle of West Virginia

CITY           SKY/WX    TMP DP  RH WIND       PRES   REMARKS
WHEELING         N/A     80  62  54 VRB7      30.03S
$$

WVZ009-301900-
Northwest West Virginia

CITY           SKY/WX    TMP DP  RH WIND       PRES   REMARKS
PARKERSBURG    PTSUNNY   80  65  59 NW5       30.05S
$$

WVZ006-301900-
Western West Virginia

CITY           SKY/WX    TMP DP  RH WIND       PRES   REMARKS
HUNTINGTON       N/A     82  64  54 NW6       30.03F
$$

WVZ015-301900-
West Central West Virginia

CITY           SKY/WX    TMP DP  RH WIND       PRES   REMARKS
CHARLESTON     PTSUNNY   82  61  48 CALM      30.03S
$$

WVZ022-031-301900-
North Central West Virginia

CITY           SKY/WX    TMP DP  RH WIND       PRES   REMARKS
CLARKSBURG       N/A     81  64  56 CALM      30.02F
MORGANTOWN     PTSUNNY   80  60  50 SW5       30.03S
$$

WVZ025-035-042-045-301900-
Southern West Virginia

CITY           SKY/WX    TMP DP  RH WIND       PRES   REMARKS
BECKLEY        PTSUNNY   78  61  55 VRB6      30.07F
LOGAN            N/A     81  61  50 W7        30.05S
BLUEFIELD      PTSUNNY   76  57  51 N5        30.09F
LEWISBURG        N/A     77  56  46 CALM      30.05F
$$

WVZ047-301900-
Northern Mountains of West Virginia

CITY           SKY/WX    TMP DP  RH WIND       PRES   REMARKS
ELKINS           N/A     79  60  52 MISG      30.04F
$$

WVZ052-301900-
Eastern Panhandle of West Virginia

CITY           SKY/WX    TMP DP  RH WIND       PRES   REMARKS
MARTINSBURG      N/A     81  61  50 CALM      29.98F
PETERSBURG       N/A     82  64  54 E6        29.99F
$$






000
ASUS41 KRLX 301310
RWRRLX
West Virginia Regional Weather Roundup
National Weather Service Charleston WV
900 AM EDT MON MAY 30 2016

Note: "fair" indicates few or no clouds below 12,000 feet with no
significant weather and/or obstructions to visibility.

WVZ003-301400-
Northern Panhandle of West Virginia

CITY           SKY/WX    TMP DP  RH WIND       PRES   REMARKS
WHEELING         N/A     68  63  84 SW3       30.04S
$$

WVZ009-301400-
Northwest West Virginia

CITY           SKY/WX    TMP DP  RH WIND       PRES   REMARKS
PARKERSBURG    FOG       65  64  97 CALM      30.07R VSB 3/4
$$

WVZ006-301400-
Western West Virginia

CITY           SKY/WX    TMP DP  RH WIND       PRES   REMARKS
HUNTINGTON       N/A     71  63  75 SW3       30.04S
$$

WVZ015-301400-
West Central West Virginia

CITY           SKY/WX    TMP DP  RH WIND       PRES   REMARKS
CHARLESTON       N/A     69  63  81 CALM      30.05R
$$

WVZ022-031-301400-
North Central West Virginia

CITY           SKY/WX    TMP DP  RH WIND       PRES   REMARKS
CLARKSBURG       N/A     69  62  78 CALM      30.05S
MORGANTOWN       N/A     70  59  68 CALM      30.06S
$$

WVZ025-035-042-045-301400-
Southern West Virginia

CITY           SKY/WX    TMP DP  RH WIND       PRES   REMARKS
BECKLEY          N/A     68  59  73 SE3       30.10F
LOGAN            N/A     68  63  83 CALM      30.06S
BLUEFIELD        N/A     61  58  90 E3        30.13F
LEWISBURG      CLOUDY    57  56  97 CALM      30.12S
$$

WVZ047-301400-
Northern Mountains of West Virginia

CITY           SKY/WX    TMP DP  RH WIND       PRES   REMARKS
ELKINS           N/A     64  58  80 W3        30.10S
$$

WVZ052-301400-
Eastern Panhandle of West Virginia

CITY           SKY/WX    TMP DP  RH WIND       PRES   REMARKS
MARTINSBURG    CLOUDY    66  63  90 CALM      30.04S
PETERSBURG       N/A     68  61  79 CALM      30.06S
$$






000
ASUS41 KRLX 301210
RWRRLX
West Virginia Regional Weather Roundup
National Weather Service Charleston WV
800 AM EDT MON MAY 30 2016

Note: "fair" indicates few or no clouds below 12,000 feet with no
significant weather and/or obstructions to visibility.

WVZ003-301300-
Northern Panhandle of West Virginia

CITY           SKY/WX    TMP DP  RH WIND       PRES   REMARKS
WHEELING       FOG       65  63  93 S3        30.04R VSB 1/4
$$

WVZ009-301300-
Northwest West Virginia

CITY           SKY/WX    TMP DP  RH WIND       PRES   REMARKS
PARKERSBURG    FOG       63  62  97 CALM      30.06R VSB 1/8
$$

WVZ006-301300-
Western West Virginia

CITY           SKY/WX    TMP DP  RH WIND       PRES   REMARKS
HUNTINGTON       N/A     66  62  87 NW3       30.04R
$$

WVZ015-301300-
West Central West Virginia

CITY           SKY/WX    TMP DP  RH WIND       PRES   REMARKS
CHARLESTON       N/A     65  62  90 CALM      30.04R
$$

WVZ022-031-301300-
North Central West Virginia

CITY           SKY/WX    TMP DP  RH WIND       PRES   REMARKS
CLARKSBURG       N/A     64  62  93 CALM      30.05S
MORGANTOWN       N/A     67  58  72 CALM      30.06S
$$

WVZ025-035-042-045-301300-
Southern West Virginia

CITY           SKY/WX    TMP DP  RH WIND       PRES   REMARKS
BECKLEY          N/A     61  57  87 CALM      30.11R
LOGAN            N/A     64  63  94 CALM      30.05S
BLUEFIELD        N/A     58  56  93 CALM      30.14R
LEWISBURG      FOG       55  55  99 CALM      30.12R VSB<1/4
$$

WVZ047-301300-
Northern Mountains of West Virginia

CITY           SKY/WX    TMP DP  RH WIND       PRES   REMARKS
ELKINS           N/A     59  55  87 CALM      30.10S
$$

WVZ052-301300-
Eastern Panhandle of West Virginia

CITY           SKY/WX    TMP DP  RH WIND       PRES   REMARKS
MARTINSBURG      N/A     64  62  93 CALM      30.04S
PETERSBURG       N/A     64  61  90 CALM      30.06F
$$






000
ASUS41 KRLX 301110
RWRRLX
West Virginia Regional Weather Roundup
National Weather Service Charleston WV
700 AM EDT MON MAY 30 2016

Note: "fair" indicates few or no clouds below 12,000 feet with no
significant weather and/or obstructions to visibility.

WVZ003-301200-
Northern Panhandle of West Virginia

CITY           SKY/WX    TMP DP  RH WIND       PRES   REMARKS
WHEELING       FOG       63  61  93 SW5       30.03S VSB 1/4
$$

WVZ009-301200-
Northwest West Virginia

CITY           SKY/WX    TMP DP  RH WIND       PRES   REMARKS
PARKERSBURG    FOG       62  61  96 CALM      30.05S VSB 1/8
$$

WVZ006-301200-
Western West Virginia

CITY           SKY/WX    TMP DP  RH WIND       PRES   REMARKS
HUNTINGTON       N/A     65  61  87 CALM      30.03R
$$

WVZ015-301200-
West Central West Virginia

CITY           SKY/WX    TMP DP  RH WIND       PRES   REMARKS
CHARLESTON       N/A     62  61  96 SE3       30.03S FOG
$$

WVZ022-031-301200-
North Central West Virginia

CITY           SKY/WX    TMP DP  RH WIND       PRES   REMARKS
CLARKSBURG       N/A     60  59  96 CALM      30.05R
MORGANTOWN       N/A     63  58  83 CALM      30.06R
$$

WVZ025-035-042-045-301200-
Southern West Virginia

CITY           SKY/WX    TMP DP  RH WIND       PRES   REMARKS
BECKLEY          N/A     59  56  89 CALM      30.10S
LOGAN            N/A     63  61  94 CALM      30.05S
BLUEFIELD      FOG       56  55  97 CALM      30.12S VSB<1/4
LEWISBURG      FOG       54  54  99 CALM      30.11S VSB<1/4
$$

WVZ047-301200-
Northern Mountains of West Virginia

CITY           SKY/WX    TMP DP  RH WIND       PRES   REMARKS
ELKINS           N/A     57  54  89 CALM      30.10S
$$

WVZ052-301200-
Eastern Panhandle of West Virginia

CITY           SKY/WX    TMP DP  RH WIND       PRES   REMARKS
MARTINSBURG    CLOUDY    63  62  97 SE3       30.04R FOG
PETERSBURG     PTSUNNY   60  59  97 CALM      30.07S
$$






000
ASUS41 KRLX 300610
RWRRLX
West Virginia Regional Weather Roundup
National Weather Service Charleston WV
200 AM EDT MON MAY 30 2016

Note: "fair" indicates few or no clouds below 12,000 feet with no
significant weather and/or obstructions to visibility.

WVZ003-300700-
Northern Panhandle of West Virginia

CITY           SKY/WX    TMP DP  RH WIND       PRES   REMARKS
WHEELING         N/A     65  61  87 CALM      30.03F
$$

WVZ009-300700-
Northwest West Virginia

CITY           SKY/WX    TMP DP  RH WIND       PRES   REMARKS
PARKERSBURG    FOG       61  60  97 CALM      30.06S VSB 1/4
$$

WVZ006-300700-
Western West Virginia

CITY           SKY/WX    TMP DP  RH WIND       PRES   REMARKS
HUNTINGTON     CLOUDY    70  66  87 W7        30.05R
$$

WVZ015-300700-
West Central West Virginia

CITY           SKY/WX    TMP DP  RH WIND       PRES   REMARKS
CHARLESTON       N/A     64  62  93 CALM      30.03F
$$

WVZ022-031-300700-
North Central West Virginia

CITY           SKY/WX    TMP DP  RH WIND       PRES   REMARKS
CLARKSBURG     FOG       62  62 100 S3        30.04F VSB 1/2
MORGANTOWN       N/A     64  58  80 S5        30.05F
$$

WVZ025-035-042-045-300700-
Southern West Virginia

CITY           SKY/WX    TMP DP  RH WIND       PRES   REMARKS
BECKLEY          N/A     60  56  86 VRB3      30.12F
LOGAN            N/A     66  63  88 CALM      30.07S
BLUEFIELD      CLOUDY    58  56  93 CALM      30.14F
LEWISBURG        N/A     56  55  94 CALM      30.12F
$$

WVZ047-300700-
Northern Mountains of West Virginia

CITY           SKY/WX    TMP DP  RH WIND       PRES   REMARKS
ELKINS           N/A     59  53  80 CALM      30.10F
$$

WVZ052-300700-
Eastern Panhandle of West Virginia

CITY           SKY/WX    TMP DP  RH WIND       PRES   REMARKS
MARTINSBURG    LGT RAIN  65  64  97 CALM      30.04F
PETERSBURG     CLOUDY    62  61  96 CALM      30.07F
$$






000
ASUS41 KRLX 300510
RWRRLX
West Virginia Regional Weather Roundup
National Weather Service Charleston WV
100 AM EDT MON MAY 30 2016

Note: "fair" indicates few or no clouds below 12,000 feet with no
significant weather and/or obstructions to visibility.

WVZ003-300600-
Northern Panhandle of West Virginia

CITY           SKY/WX    TMP DP  RH WIND       PRES   REMARKS
WHEELING         N/A     66  61  84 S5        30.04F
$$

WVZ009-300600-
Northwest West Virginia

CITY           SKY/WX    TMP DP  RH WIND       PRES   REMARKS
PARKERSBURG    FOG       62  61  96 CALM      30.06F VSB 1/4
$$

WVZ006-300600-
Western West Virginia

CITY           SKY/WX    TMP DP  RH WIND       PRES   REMARKS
HUNTINGTON     MOCLDY    69  67  93 N5        30.04R FOG
$$

WVZ015-300600-
West Central West Virginia

CITY           SKY/WX    TMP DP  RH WIND       PRES   REMARKS
CHARLESTON     FOG       65  64  97 CALM      30.04F VSB<1/4
$$

WVZ022-031-300600-
North Central West Virginia

CITY           SKY/WX    TMP DP  RH WIND       PRES   REMARKS
CLARKSBURG       N/A     63  62  97 CALM      30.05F FOG
MORGANTOWN       N/A     66  58  75 CALM      30.07F
$$

WVZ025-035-042-045-300600-
Southern West Virginia

CITY           SKY/WX    TMP DP  RH WIND       PRES   REMARKS
BECKLEY          N/A     61  56  83 SE6       30.13S
LOGAN            N/A     66  63  88 CALM      30.07F
BLUEFIELD      CLOUDY    60  56  86 CALM      30.15F
LEWISBURG        N/A     57  56  95 CALM      30.13F
$$

WVZ047-300600-
Northern Mountains of West Virginia

CITY           SKY/WX    TMP DP  RH WIND       PRES   REMARKS
ELKINS         MOCLDY    59  55  87 CALM      30.11F
$$

WVZ052-300600-
Eastern Panhandle of West Virginia

CITY           SKY/WX    TMP DP  RH WIND       PRES   REMARKS
MARTINSBURG    LGT RAIN  66  64  93 S3        30.06S
PETERSBURG     CLOUDY    62  61  94 CALM      30.09F
$$






    US Dept of Commerce
    National Oceanic and Atmospheric Administration
    National Weather Service
    1325 East West Highway
    Silver Spring, MD 20910
    Page Author: NWS Internet Services Team
Disclaimer
Information Quality
Credits
Glossary
Privacy Policy
Freedom of Information Act (FOIA)
About Us
Career Opportunities